CW6238 Weather Reports


Display with metric or nautical units.
time (UTC)temp
F
wind
direction
speed
MPH
gust
MPH
rain 1hr
in
rain 24hr
in
rain mn
in
humidity
%
barometer
mb
20260509130519 57 135 3.0 8.0 0.00 0.00 0.00 35 1019.0
20260509125519 57 135 2.0 10.0 0.00 0.00 0.00 35 1019.1
20260509124520 57 135 3.0 11.0 0.00 0.00 0.00 35 1019.2
20260509123519 57 135 4.0 11.0 0.00 0.00 0.00 35 1019.2
20260509122519 57 113 3.0 10.0 0.00 0.00 0.00 34 1019.4
20260509121519 57 158 2.0 9.0 0.00 0.00 0.00 34 1019.5
20260509120519 57 113 4.0 11.0 0.00 0.00 0.00 34 1019.6
20260509115519 57 135 4.0 9.0 0.00 0.00 0.00 35 1019.7
20260509114519 57 90 3.0 7.0 0.00 0.00 0.00 37 1019.7
20260509113519 58 158 2.0 12.0 0.00 0.00 0.00 36 1020.0
20260509112519 57 135 3.0 8.0 0.00 0.00 0.00 38 1019.9
20260509111539 58 135 4.0 10.0 0.00 0.00 0.00 37 1020.0
20260509110522 58 135 3.0 6.0 0.00 0.00 0.00 40 1020.0
20260509105520 58 45 3.0 11.0 0.00 0.00 0.00 38 1020.0
20260509104519 58 135 2.0 5.0 0.00 0.00 0.00 39 1020.0
20260509103539 58 45 3.0 7.0 0.00 0.00 0.00 39 1020.1
20260509102519 58 45 2.0 7.0 0.00 0.00 0.00 39 1020.2
20260509101520 58 135 2.0 7.0 0.00 0.00 0.00 39 1020.3
20260509100519 58 158 2.0 6.0 0.00 0.00 0.00 37 1020.3
20260509095519 57 45 3.0 7.0 0.00 0.00 0.00 39 1020.2
20260509094522 58 45 3.0 8.0 0.00 0.00 0.00 37 1020.3
20260509093519 57 45 2.0 6.0 0.00 0.00 0.00 37 1020.4
20260509092539 57 68 2.0 8.0 0.00 0.00 0.00 33 1020.4
20260509091519 56 45 3.0 6.0 0.00 0.00 0.00 35 1020.5
20260509090518 57 45 3.0 8.0 0.00 0.00 0.00 35 1020.5
20260509085519 56 45 2.0 6.0 0.00 0.00 0.00 37 1020.5
20260509084519 57 45 2.0 8.0 0.00 0.00 0.00 36 1020.6
20260509083519 56 45 3.0 8.0 0.00 0.00 0.00 38 1020.6
20260509082539 56 45 3.0 6.0 0.00 0.00 0.00 37 1020.7
20260509081519 56 45 2.0 6.0 0.00 0.00 0.00 38 1020.8
20260509080518 56 113 2.0 6.0 0.00 0.00 0.00 38 1020.9
20260509075518 56 45 2.0 7.0 0.00 0.00 0.00 38 1021.1
20260509074519 55 45 2.0 6.0 0.00 0.00 0.00 38 1021.1
20260509073520 55 68 2.0 7.0 0.00 0.00 0.00 39 1021.0
20260509072519 55 45 3.0 6.0 0.00 0.00 0.00 38 1021.1
20260509071518 55 45 2.0 6.0 0.00 0.00 0.00 39 1021.1
20260509070519 55 68 3.0 9.0 0.00 0.00 0.00 39 1021.2
20260509065519 54 68 2.0 6.0 0.00 0.00 0.00 43 1021.3
20260509064518 54 0.0 2.0 0.00 0.00 0.00 45 1021.3
20260509063518 54 135 1.0 2.0 0.00 0.00 0.00 46 1021.2
20260509062539 52 0.0 2.0 0.00 0.00 0.00 51 1021.2
20260509061518 51 90 1.0 6.0 0.00 0.00 0.00 53 1021.2
20260509060520 49 113 1.0 6.0 0.00 0.00 0.00 57 1021.3
20260509055520 48 113 1.0 4.0 0.00 0.00 0.00 60 1021.3
20260509054519 47 0.0 4.0 0.00 0.00 0.00 61 1021.3
20260509053519 45 0.0 0.0 0.00 0.00 0.00 67 1021.4
20260509052519 42 0.0 0.0 0.00 0.00 0.00 73 1021.4
20260509051518 40 0.0 0.0 0.00 0.00 0.00 75 1021.5
20260509050519 39 0.0 0.0 0.00 0.00 0.00 74 1021.5
20260509045539 38 0.0 0.0 0.00 0.00 0.00 77 1021.6
20260509044518 37 0.0 0.0 0.00 0.00 0.00 80 1021.5
20260509043520 35 0.0 0.0 0.00 0.00 0.00 81 1021.5
20260509042519 34 0.0 0.0 0.00 0.00 0.00 83 1021.5
20260509041518 33 0.0 0.0 0.00 0.00 0.00 83 1021.5
20260509040518 33 0.0 0.0 0.00 0.00 0.00 82 1021.5
20260509035520 33 0.0 0.0 0.00 0.00 0.00 83 1021.5
20260509034519 32 0.0 0.0 0.00 0.00 0.00 83 1021.5
20260509033538 32 0.0 0.0 0.00 0.00 0.00 84 1021.6
20260509032520 31 0.0 0.0 0.00 0.00 0.00 84 1021.6
20260509031520 31 0.0 0.0 0.00 0.00 0.00 84 1021.6
20260509030519 31 0.0 0.0 0.00 0.00 0.00 82 1021.7
20260509025541 32 0.0 0.0 0.00 0.00 0.00 82 1021.7
20260509024539 32 0.0 0.0 0.00 0.00 0.00 82 1021.8
20260509023523 31 0.0 0.0 0.00 0.00 0.00 82 1021.8
20260509022520 32 0.0 0.0 0.00 0.00 0.00 81 1021.8
20260509021520 32 0.0 0.0 0.00 0.00 0.00 81 1021.8
20260509020520 32 0.0 0.0 0.00 0.00 0.00 81 1021.8
20260509015519 32 0.0 0.0 0.00 0.00 0.00 80 1021.8
20260509014520 32 0.0 0.0 0.00 0.00 0.00 81 1021.8
20260509013520 32 0.0 0.0 0.00 0.00 0.00 80 1021.8
20260509012518 33 0.0 0.0 0.00 0.00 0.00 80 1021.8
20260509011518 32 0.0 0.0 0.00 0.00 0.00 79 1021.8
20260509010520 33 0.0 0.0 0.00 0.00 0.00 78 1021.8
20260509005520 32 0.0 0.0 0.00 0.00 0.00 78 1021.8
20260509004520 33 0.0 0.0 0.00 0.00 0.00 76 1021.8
20260509003520 33 0.0 0.0 0.00 0.00 0.00 76 1021.7
20260509002520 33 0.0 0.0 0.00 0.00 0.00 76 1021.8
20260509001520 33 0.0 0.0 0.00 0.00 0.00 75 1021.8
20260509000518 33 0.0 0.0 0.00 0.00 0.00 75 1021.8
20260508235520 33 0.0 0.0 0.00 0.00 0.00 74 1021.8
20260508234520 33 0.0 0.0 0.00 0.00 0.00 73 1021.6
20260508233520 34 0.0 0.0 0.00 0.00 0.00 73 1021.7
20260508232518 34 0.0 0.0 0.00 0.00 0.00 73 1021.8
20260508231520 35 0.0 0.0 0.00 0.00 0.00 72 1021.8
20260508230520 35 0.0 0.0 0.00 0.00 0.00 74 1021.7
20260508225520 34 0.0 0.0 0.00 0.00 0.00 73 1021.8
20260508224520 35 0.0 0.0 0.00 0.00 0.00 73 1021.8
20260508223520 35 0.0 0.0 0.00 0.00 0.00 73 1021.8
20260508222540 35 0.0 0.0 0.00 0.00 0.00 73 1021.9
20260508221544 35 0.0 0.0 0.00 0.00 0.00 72 1021.9
20260508220520 35 0.0 0.0 0.00 0.00 0.00 71 1021.9
20260508215520 35 0.0 0.0 0.00 0.00 0.00 71 1021.9
20260508214519 35 0.0 0.0 0.00 0.00 0.00 69 1021.9
20260508213520 36 0.0 0.0 0.00 0.00 0.00 68 1022.0
20260508212520 36 0.0 0.0 0.00 0.00 0.00 67 1021.9
20260508211520 36 0.0 0.0 0.00 0.00 0.00 66 1021.9
20260508210519 37 0.0 0.0 0.00 0.00 0.00 65 1021.9
20260508205520 37 0.0 0.0 0.00 0.00 0.00 65 1021.9
20260508204520 38 0.0 0.0 0.00 0.00 0.00 63 1021.9
20260508203520 38 0.0 0.0 0.00 0.00 0.00 62 1021.8
20260508202520 38 0.0 0.0 0.00 0.00 0.00 60 1021.8
20260508201519 39 0.0 0.0 0.00 0.00 0.00 58 1021.9
20260508200519 40 0.0 0.0 0.00 0.00 0.00 58 1021.9
20260508195524 40 0.0 0.0 0.00 0.00 0.00 57 1021.9
20260508194520 41 0.0 0.0 0.00 0.00 0.00 54 1021.8
20260508193519 42 0.0 0.0 0.00 0.00 0.00 52 1021.9
20260508192520 43 0.0 0.0 0.00 0.00 0.00 50 1021.8
20260508191519 45 0.0 0.0 0.00 0.00 0.00 47 1021.7
20260508190519 46 0.0 0.0 0.00 0.00 0.00 45 1021.7
20260508185539 47 0.0 0.0 0.00 0.00 0.00 42 1021.6
20260508184519 49 0.0 0.0 0.00 0.00 0.00 40 1021.6
20260508183540 50 0.0 0.0 0.00 0.00 0.00 37 1021.6
20260508182519 51 0.0 0.0 0.00 0.00 0.00 36 1021.6
20260508181539 52 0.0 0.0 0.00 0.00 0.00 35 1021.5
20260508180520 53 0.0 2.0 0.00 0.00 0.00 34 1021.5
20260508175519 54 158 1.0 3.0 0.00 0.00 0.00 32 1021.6
20260508174519 54 0.0 3.0 0.00 0.00 0.00 32 1021.5
20260508173519 54 113 2.0 4.0 0.00 0.00 0.00 31 1021.4
20260508172519 55 0.0 1.0 0.00 0.00 0.00 31 1021.4
20260508171519 54 113 2.0 3.0 0.00 0.00 0.00 32 1021.2
20260508170519 55 113 1.0 4.0 0.00 0.00 0.00 31 1021.3
20260508165519 55 135 2.0 5.0 0.00 0.00 0.00 31 1021.3
20260508164519 56 113 2.0 6.0 0.00 0.00 0.00 31 1021.3
20260508163519 56 158 1.0 4.0 0.00 0.00 0.00 29 1021.3
20260508162519 56 135 1.0 4.0 0.00 0.00 0.00 30 1021.2
20260508161539 56 135 2.0 5.0 0.00 0.00 0.00 28 1021.3
20260508160519 56 90 2.0 5.0 0.00 0.00 0.00 28 1021.3
20260508155540 56 135 2.0 5.0 0.00 0.00 0.00 28 1021.3
20260508154519 56 135 3.0 8.0 0.00 0.00 0.00 28 1021.3
20260508153519 56 135 3.0 8.0 0.00 0.00 0.00 28 1021.4
20260508152519 57 135 1.0 6.0 0.00 0.00 0.00 28 1021.4
20260508151519 57 45 2.0 7.0 0.00 0.00 0.00 28 1021.4
20260508150519 56 113 2.0 7.0 0.00 0.00 0.00 28 1021.4
20260508145520 57 135 3.0 7.0 0.00 0.00 0.00 27 1021.4
20260508144519 57 158 1.0 6.0 0.00 0.00 0.00 28 1021.5
20260508143539 56 135 2.0 8.0 0.00 0.00 0.00 29 1021.5
20260508142519 56 135 3.0 8.0 0.00 0.00 0.00 29 1021.4
20260508141519 56 45 3.0 8.0 0.00 0.00 0.00 30 1021.4
20260508140540 56 135 4.0 9.0 0.00 0.00 0.00 29 1021.5
20260508135520 56 135 3.0 8.0 0.00 0.00 0.00 29 1021.5
20260508134518 56 135 4.0 8.0 0.00 0.00 0.00 31 1021.6
20260508133519 56 135 2.0 7.0 0.00 0.00 0.00 30 1021.6
20260508132522 56 135 2.0 5.0 0.00 0.00 0.00 31 1021.5
20260508131520 56 135 4.0 10.0 0.00 0.00 0.00 31 1021.7